Flag for Germany Weather past 2 weeks in Merzig, Saarland, Germany

Now
54 °F

Partly sunny.


Feels Like: 54 °F
Forecast: 51 / 64 °F
Wind: 2 mph from Southwest

Location: Trier-Petrisberg

Current Time: Aug 30, 2014 at 8:47:39 AM

Latest Report: Aug 30, 2014 at 8:00 AM


Visibility: 11 mi

Pressure: 30.10 "Hg

Humidity: 99%

Dew point: 54 °F

Location of MerzigLocation

Historic Weather in Merzig — Graph

°F

Merzig temperature yesterday

Maximum temperature yesterday: 74 °F (at 1:00 PM)
Minimum temperature yesterday: 60 °F (at 7:00 AM)
Average temperature yesterday: 68 °F

Past Weeks' High & Low Weather Summary

 TemperatureHumidityPressure
High74 °F (Aug 29, 1:00 PM)100% (Aug 16, 8:00 AM)30.16 "Hg (Aug 16, 8:00 AM)
Low44 °F (Aug 20, 5:00 AM)41% (Aug 21, 5:00 PM)29.64 "Hg (Aug 26, 6:00 AM)
Average58 °F81%29.97 "Hg
* Reported Aug 15 8:00 AM — Aug 30 8:00 AM, Merzig, Weather by CustomWeather, © 2014

Note: Actual official high and low records may vary slightly from our data, if they occured in-between our weather recording intervals... More about our weather records

Advertising

Merzig weather history for previous 24 hours

 ConditionsComfort  
Time TempWeatherWind HumidityBarometerVisibility
8:00 AM
Aug 30
54 °FPartly sunny.2 mph99%30.10 "Hg11 mi
7:00 AM53 °FPartly sunny.1 mph99%30.10 "Hg9 mi
6:00 AM54 °FPassing clouds.1 mph99%30.09 "Hg9 mi
5:00 AM54 °FClear.2 mph98%30.09 "Hg8 mi
4:00 AM55 °FPassing clouds.2 mph97%30.09 "Hg12 mi
3:00 AM55 °FClear.2 mph96%30.10 "Hg17 mi
2:00 AM56 °FClear.2 mph95%30.09 "Hg19 mi
1:00 AM58 °FClear.1 mph92%30.08 "Hg19 mi
12:00 AM61 °FPassing clouds.3 mph85%30.08 "Hg31 mi
9:00 PM
Aug 29
67 °FOvercast.3 mph74%30.02 "Hg40 mi
8:00 PM67 °FSunny.2 mph77%30.00 "Hg31 mi
7:00 PM69 °FScattered clouds.3 mph68%29.99 "Hg40 mi
6:00 PM71 °FScattered clouds.3 mph64%29.99 "Hg43 mi
5:00 PM72 °FPartly sunny.6 mph56%29.99 "Hg34 mi
4:00 PM73 °FPartly sunny.7 mph57%29.99 "Hg34 mi
3:00 PM73 °FScattered clouds.6 mph56%30.00 "Hg34 mi
2:00 PM73 °FScattered clouds.5 mph59%30.01 "Hg34 mi
1:00 PM74 °FPassing clouds.3 mph61%30.01 "Hg34 mi
12:00 PM71 °FPassing clouds.3 mph67%30.03 "Hg34 mi
11:00 AM65 °FPartly sunny.2 mph82%30.04 "Hg31 mi
10:00 AM65 °FScattered clouds.3 mph84%30.03 "Hg19 mi
9:00 AM62 °FFog.1 mph97%30.03 "Hg11 mi
8:00 AM60 °FFog.1 mph99%30.03 "Hg1 mi
Weather by CustomWeather, © 2014

See weather overviewHow to use our weather pages